Simultaneous Nadir Overpasses (SNOs) Predictions

Prediction of SNOs between LANDSAT-8 and METOP-B Satellite Orbit:

Table of predicted SNOs for the next 14.0 days since TLE Epoch: 10/21/2023
Index Date (LANDSAT-8) Time (LANDSAT-8) Lat,Lon (LANDSAT-8) SZA (LANDSAT-8 ) Date (METOP-B) Time (METOP-B) Lat,Lon (METOP-B) SZA (METOP-B ) Distance(km) Time Diff (sec)
1 10/23/2023 10:55:27 -81.25,-121.90 84.80 10/23/2023 10:55:10 -81.25,-121.92 84.81 0.34 17
2 10/23/2023 11:44:53 81.25, 45.83 95.23 10/23/2023 11:45:50 81.25, 45.63 95.24 3.26 57
3 10/26/2023 06:29:43 -81.26, -55.29 83.79 10/26/2023 06:29:28 -81.25, -55.46 83.82 3.05 15
4 10/26/2023 07:19:09 81.26, 112.40 96.23 10/26/2023 07:20:07 81.26, 112.46 96.27 0.92 58
5 10/29/2023 02:03:58 -81.25, 11.01 82.86 10/29/2023 02:03:45 -81.25, 10.89 82.88 1.96 13
6 10/29/2023 02:53:23 81.27, 179.05 97.21 10/29/2023 02:54:23 81.27, 179.17 97.26 2.11 60
7 10/31/2023 21:38:13 -81.24, 77.36 81.95 10/31/2023 21:38:02 -81.25, 77.52 81.93 2.79 11
8 10/31/2023 22:27:38 81.27,-114.62 98.12 10/31/2023 22:28:41 81.27,-114.61 98.15 0.29 63
9 11/03/2023 17:12:27 -81.24, 143.78 81.07 11/03/2023 17:12:20 -81.25, 143.66 81.08 2.11 7



Historial Predications of SNOs between LANDSAT-8 and METOP-B
